Weather History for Morgantown, WV

Change the Weather History Date:

Sunday, January 13, 2008

  Actual Average Record
Temperature  
Mean Temperature 40 °F 31 °F  
Max Temperature 45 °F 39 °F 72 °F (2005)
Min Temperature 35 °F 24 °F -12 °F (1977)
Degree Days  
Heating Degree Days 25 34  
Month to date heating degree days 439  
Since 1 July heating degree days 2423  
Cooling Degree Days 0 0  
Month to date cooling degree days 0  
Year to date cooling degree days 0  
Moisture  
Dew Point 30 °F    
Average Humidity 71    
Maximum Humidity 93    
Minimum Humidity 49    
Precipitation  
Precipitation 0.03 in 0.09 in 0.80 in (1975)
Month to date precipitation 1.17  
Year to date precipitation 1.17  
Sea Level Pressure  
Sea Level Pressure 29.95 in    
Wind  
Wind Speed 5 mph (SSE)    
Max Wind Speed 10 mph    
Max Gust Speed 16 mph    
Visibility 9 miles    
Events Rain    
T = Trace of Precipitation, MM = Missing Value Source: NWS Daily Summary

Daily Weather History Graph

Daily Weather History Graph

Search for Another Location

Airport:

Trip Planner

Search our weather history database for the weather conditions in past years. The results will help you decide how hot, cold, wet, or windy it might be!

Date:

Astronomy

Jan. 13, 2008 Rise Set
Actual Time 7:39 AM EST 5:17 PM EST
Civil Twilight 7:09 AM EST 5:46 PM EST
Nautical Twilight 6:36 AM EST 6:20 PM EST
Astronomical Twilight 6:04 AM EST 6:52 PM EST
Moon 10:27 AM EST (1/13) 11:02 PM EST (1/13)
Length of Visible Light 10h 37m
Length of Day
9h 37m
Waxing Crescent, 27% of the Moon is Illuminated
Jan 13
Waxing Crescent
Jan 15
First Quarter
Jan 22
Full
Jan 30
Last Quarter
Feb 6
New

Hourly Weather History & Observations

Time (EST) Temp. Windchill Dew Point Humidity Pressure Visibility Wind Dir Wind Speed Gust Speed Precip Events Conditions
12:53 AM 36.0 °F 33.3 °F 26.1 °F 67% 30.07 in 10.0 mi Variable 3.5 mph - N/A   Clear
1:53 AM 35.1 °F 31.0 °F 25.0 °F 67% 30.05 in 10.0 mi East 4.6 mph - N/A   Clear
2:53 AM 37.0 °F 33.3 °F 25.0 °F 62% 30.04 in 10.0 mi ESE 4.6 mph - N/A   Clear
3:53 AM 37.9 °F 32.7 °F 25.0 °F 60% 30.03 in 10.0 mi ESE 6.9 mph 16.1 mph N/A   Clear
4:53 AM 37.9 °F 32.7 °F 25.0 °F 60% 30.01 in 10.0 mi SE 6.9 mph - N/A   Clear
5:53 AM 37.0 °F 31.0 °F 25.0 °F 62% 30.02 in 10.0 mi ESE 8.1 mph - N/A   Clear
6:53 AM 37.9 °F 30.9 °F 25.0 °F 60% 30.01 in 10.0 mi ESE 10.4 mph 16.1 mph N/A   Scattered Clouds
7:53 AM 37.0 °F 33.3 °F 25.0 °F 62% 30.01 in 10.0 mi Variable 4.6 mph - N/A   Clear
8:53 AM 37.9 °F - 25.0 °F 60% 30.03 in 10.0 mi Calm Calm - N/A   Mostly Cloudy
9:53 AM 39.0 °F 32.8 °F 26.1 °F 60% 30.04 in 10.0 mi SSE 9.2 mph 16.1 mph N/A   Scattered Clouds
10:53 AM 41.0 °F 38.0 °F 27.0 °F 57% 30.03 in 10.0 mi SE 4.6 mph - N/A   Overcast
11:53 AM 42.1 °F 38.4 °F 27.0 °F 55% 29.99 in 10.0 mi SE 5.8 mph - N/A   Mostly Cloudy
12:53 PM 44.1 °F 39.0 °F 27.0 °F 51% 29.94 in 10.0 mi SSE 9.2 mph - N/A   Mostly Cloudy
1:53 PM 44.1 °F 40.8 °F 26.1 °F 49% 29.92 in 10.0 mi SSE 5.8 mph - N/A   Overcast
2:53 PM 45.0 °F 41.8 °F 27.0 °F 49% 29.89 in 10.0 mi SSE 5.8 mph - N/A   Mostly Cloudy
3:53 PM 44.1 °F 40.8 °F 30.9 °F 60% 29.90 in 9.0 mi Variable 5.8 mph - 0.00 in   Light Drizzle
4:04 PM 42.8 °F 39.3 °F 32.0 °F 66% 29.89 in 10.0 mi Variable 5.8 mph - 0.00 in   Light Drizzle
4:24 PM 42.8 °F 41.1 °F 33.8 °F 70% 29.89 in 5.0 mi WSW 3.5 mph - 0.00 in Rain Light Rain
4:53 PM 41.0 °F - 35.1 °F 79% 29.92 in 5.0 mi Calm Calm - 0.01 in Rain Light Rain
5:24 PM 39.2 °F - 35.6 °F 87% 29.89 in 7.0 mi Calm Calm - 0.01 in Rain Light Rain
5:53 PM 39.9 °F - 37.0 °F 89% 29.93 in 6.0 mi Calm Calm - 0.01 in Rain Light Rain
6:53 PM 39.0 °F - 36.0 °F 89% 29.93 in 6.0 mi Calm Calm - 0.01 in Rain Light Rain
7:53 PM 37.9 °F 35.5 °F 36.0 °F 93% 29.93 in 5.0 mi SSE 3.5 mph - 0.00 in   Overcast
8:53 PM 37.9 °F 35.5 °F 36.0 °F 93% 29.92 in 5.0 mi South 3.5 mph - N/A   Overcast
9:53 PM 39.9 °F 37.8 °F 35.1 °F 83% 29.91 in 7.0 mi South 3.5 mph - N/A   Overcast
10:53 PM 39.9 °F 35.1 °F 35.1 °F 83% 29.91 in 9.0 mi South 6.9 mph - N/A   Overcast
11:12 PM 39.2 °F 35.9 °F 35.6 °F 87% 29.89 in 10.0 mi SW 4.6 mph - N/A   Overcast
11:21 PM 39.2 °F 35.9 °F 35.6 °F 87% 29.88 in 10.0 mi SSW 4.6 mph - N/A   Overcast
11:41 PM 39.2 °F 35.0 °F 35.6 °F 87% 29.88 in 10.0 mi SSW 5.8 mph - N/A   Overcast
11:53 PM 39.0 °F 35.7 °F 35.1 °F 86% 29.90 in 10.0 mi SSW 4.6 mph - N/A   Overcast